{"data":{"norad_id":68562,"intl_designator":"2026-070W","name":"STARLINK-37233","alt_names":[],"object_type":"PAYLOAD","status":"ACTIVE","operator":null,"country":"US","launch_date":"2026-04-02","launch_site_code":"AFETR","launch_vehicle":null,"mission":null,"orbit_class":"UNKNOWN","rcs_meters":null,"size_class":null,"mass_kg":null,"dimensions":null,"purposes":["comms"],"wikipedia_slug":null,"has_3d_model":false,"image_url":null,"decayed_at":null,"tle_current":{"epoch":"2026-09-20T04:37:33.377952Z","epoch_age_seconds":71806,"freshness":"FRESH","line1":"1 68562U 26070W   26263.19274743  .00022344  00000+0  67012-3 0  9991","line2":"2 68562  53.1570 174.8820 0001485  87.5613 272.5560 15.34416154 26399","mean_motion":15.34416154,"eccentricity":0.0001485,"inclination_deg":53.157,"raan_deg":174.882,"arg_perigee_deg":87.5613,"mean_anomaly_deg":272.556,"bstar":0.00067012,"rev_number":2639,"period_min":93.846770072521,"perigee_km":461.63936989024,"apogee_km":463.67108518182,"semimajor_km":6840.792227536,"source":"CELESTRAK","updated_at":"2026-09-20T09:00:43.937403Z"}}}